STARLINK-36542, 67445

Orbit data source: Space-Track

STARLINK-36542, 67445 is a payload satellite owned by SpaceX/Seattle (US) in LEO that was launched on Wed, 14 Jan 2026 UTC via an FALCON 9 launch vehicle from the Air Force Eastern Test Range (AFETR). Payload-class satellites include a variety of spacecraft equipped with specific instruments for various scientific and technological missions. These include communications satellites like Starlink; space stations such as the ISS; scientific satellites like the Hubble; Earth observation satellites from companies like Planet Labs, Umbra, and HawkEye 360; GPS; miniature CubeSats for education and research; and military/defense satellites.

Loading next visibility...
Identifier
67445, 2026-008A
Orbit
LEO
Country
Flag of USUS
Related business
Manufacturer
SpaceX/Seattle
Mission
Operational spacecraft
Bus & Motor
STARLINK V2MO, Unknown motor
Mass
575 kg wet, ~530 kg dry
Launch date (UTC)
2026-01-14 (2 months ago)
Launch vehicle
FALCON 9
Launch site
Air Force Eastern Test Range (AFETR)
Object type
Payload
Rocket body
Debris
Shape & HBR
Unknown shape, 17.7 m
Radar Cross Section
RCS unknown

Expand to show TLE details & history
Last TLE update: 15 hours ago

TLE from 15 hours ago
0 STARLINK-36542
1 67445U 26008A   26062.57362376  .00034639  00000-0  12617-2 0  9991
2 67445  42.9989 240.0459 0001597 269.4654  90.6015 15.27597284  8639
Epoch: 2026-03-03T13:46Z
TLE epoch observation values (Epoch: 2026-03-03T13:46:01.092Z)
Latitude
-0.00001°
Longitude
-127.8094°
Altitude
482.784 km
Speed
7.626 km/s
True Right ascension
16h 00m 11s
True Declination
0° 00' 00"
Sunlit
Object was in daylight at epoch
Visualization orbit readout
Latitude
Unknown
Longitude
Unknown
Altitude
Unknown
Speed
Unknown
Apparent Right ascension
Unknown
Apparent Declination
Unknown
Sunlit
N/A
Visualization observer readout
Local Sidereal Time
08:42:56
Azimuth
Unknown
Elevation
Unknown
Doppler factor
Unknown
Orbital elements
Apogee altitude
486.039 km
Perigee altitude
483.847 km
Semi-major axis
6,863.08 km
Eccentricity
0.00016
Inclination
42.9989°
RAAN
240.0459°
Arg. of periapsis
269.4654°
True anomaly
90.6198°
Mean anomaly
90.6015°
Eccentric anomaly
90.61065°
Mean motion
3.81737 °/min
Orbital period
94.31 mins
BSTAR
0.0012617
Loading maneuver chart data...
Computing Atmospheric mass density...
Loading historical data...
Loading historical data...
Loading historical data...
Loading historical data...
Loading historical data...
Loading historical data...
Loading historical data...

Documentation

Showing up to 5 results
|